GW4670 Weather Reports


time (UTC)temp
C
wind
direction
speed
KPH
gust
KPH
rain 1hr
cm
rain 24hr
cm
rain mn
cm
humidity
%
barometer
mb
20260504081823 6 180 3.2 3.2 0.00 0.00 0.00 80 1001.0
20260504081320 6 180 0.0 0.0 0.00 0.00 0.00 81 1001.2
20260504080816 7 175 0.0 0.0 0.00 0.00 0.00 79 1001.1
20260504080313 7 160 3.2 3.2 0.00 0.00 0.00 75 1001.1
20260504070240 3 265 0.0 0.0 0.00 0.00 0.00 91 1001.8
20260504060201 5 201 0.0 0.0 0.00 0.00 0.00 85 1002.5
20260504050629 5 307 0.0 0.0 0.00 0.00 0.00 92 1003.2
20260504050126 5 309 0.0 0.0 0.00 0.00 0.00 92 1003.1
20260504045623 5 310 0.0 0.0 0.00 0.00 0.00 91 1003.0
20260504045118 5 310 0.0 0.0 0.00 0.00 0.00 91 1003.1
20260504044616 5 308 0.0 0.0 0.00 0.00 0.00 91 1003.2
20260504044113 5 325 1.6 1.6 0.00 0.00 0.00 90 1003.4
20260504043610 5 306 0.0 0.0 0.00 0.00 0.00 89 1003.3
20260504043107 5 305 0.0 0.0 0.00 0.00 0.00 89 1003.4
20260504042604 5 305 0.0 0.0 0.00 0.00 0.00 89 1003.3
20260504042101 5 305 0.0 1.6 0.00 0.00 0.00 88 1003.5
20260504041556 5 305 0.0 0.0 0.00 0.00 0.00 88 1003.5
20260504041053 5 305 0.0 0.0 0.00 0.00 0.00 88 1003.5
20260504040550 6 305 0.0 0.0 0.00 0.00 0.00 88 1003.6
20260504040041 5 305 0.0 0.0 0.00 0.00 0.00 86 1003.7
20260504035538 6 305 0.0 0.0 0.00 0.00 0.00 86 1003.7
20260504035034 6 305 0.0 0.0 0.00 0.00 0.00 84 1003.9
20260504034533 6 305 0.0 0.0 0.00 0.00 0.00 83 1003.8
20260504034029 7 305 0.0 0.0 0.00 0.00 0.00 82 1003.9
20260504033527 7 305 0.0 0.0 0.00 0.00 0.00 82 1003.8
20260504033024 7 305 0.0 0.0 0.00 0.00 0.00 82 1004.0
20260504032521 7 305 0.0 0.0 0.00 0.00 0.00 81 1003.8
20260504032018 7 305 0.0 0.0 0.00 0.00 0.00 80 1004.0
20260504031514 8 306 0.0 0.0 0.00 0.00 0.00 78 1004.0
20260504031010 8 298 0.0 0.0 0.00 0.00 0.00 79 1004.2
20260504030508 7 273 0.0 0.0 0.00 0.00 0.00 81 1004.1
20260504030004 7 268 0.0 0.0 0.00 0.00 0.00 80 1004.2
20260504025501 7 298 0.0 0.0 0.00 0.00 0.00 80 1004.1
20260504024957 7 333 0.0 0.0 0.00 0.00 0.00 80 1004.2
20260504024455 7 333 0.0 0.0 0.00 0.00 0.00 78 1003.9
20260504023952 8 333 0.0 0.0 0.00 0.00 0.00 76 1003.9
20260504023449 8 333 0.0 0.0 0.00 0.00 0.00 76 1003.9
20260504022944 8 333 0.0 0.0 0.00 0.00 0.00 74 1003.9
20260504022440 8 334 0.0 1.6 0.00 0.00 0.00 73 1003.8
20260504021937 8 334 0.0 0.0 0.00 0.00 0.00 73 1003.9
20260504021435 9 334 0.0 0.0 0.00 0.00 0.00 72 1003.8
20260504020932 10 338 0.0 0.0 0.00 0.00 0.00 70 1003.8
20260504020428 10 339 1.6 1.6 0.00 0.00 0.00 68 1003.8
20260504015925 11 339 1.6 1.6 0.00 0.00 0.00 64 1003.8
20260504015421 11 345 1.6 1.6 0.00 0.00 0.00 63 1003.8
20260504014917 11 340 1.6 1.6 0.00 0.00 0.00 61 1003.7
20260504014413 12 346 1.6 1.6 0.00 0.00 0.00 61 1003.5
20260504013910 12 346 1.6 1.6 0.00 0.00 0.00 55 1003.6
20260504013409 12 339 1.6 1.6 0.00 0.00 0.00 52 1003.4
20260504012904 13 345 1.6 1.6 0.00 0.00 0.00 52 1003.5
20260504012402 15 340 1.6 1.6 0.00 0.00 0.00 46 1003.5
20260504011859 15 341 1.6 1.6 0.00 0.00 0.00 44 1003.4
20260504011356 16 325 0.0 1.6 0.00 0.00 0.00 42 1003.2
20260504010847 18 304 3.2 4.8 0.00 0.00 0.00 35 1003.4
20260504010342 19 296 8.0 9.7 0.00 0.00 0.00 32 1003.4
20260504005839 19 300 6.4 9.7 0.00 0.00 0.00 33 1003.3
20260504005336 20 302 9.7 11.3 0.00 0.00 0.00 31 1003.2
20260504004833 20 297 9.7 11.3 0.00 0.00 0.00 31 1003.2
20260504004331 20 292 9.7 11.3 0.00 0.00 0.00 30 1003.2
20260504003827 21 290 11.3 12.9 0.00 0.00 0.00 29 1003.2
20260504003324 21 306 11.3 14.5 0.00 0.00 0.00 29 1003.3
20260504002821 21 275 17.7 22.5 0.00 0.00 0.00 28 1003.2
20260504002317 21 295 14.5 17.7 0.00 0.00 0.00 29 1003.2
20260504001815 21 293 14.5 17.7 0.00 0.00 0.00 28 1003.2
20260504001312 21 294 11.3 12.9 0.00 0.00 0.00 29 1003.0
20260504000809 22 296 14.5 16.1 0.00 0.00 0.00 28 1003.2
20260504000306 22 297 17.7 20.9 0.00 0.00 0.00 27 1003.3
20260503235804 22 298 14.5 16.1 0.00 0.00 0.00 27 1003.3
20260503235301 22 299 14.5 16.1 0.00 0.00 0.00 27 1003.1
20260503234759 22 321 9.7 12.9 0.00 0.00 0.00 28 1003.2
20260503234256 22 306 8.0 11.3 0.00 0.00 0.00 27 1003.0
20260503233753 22 304 8.0 11.3 0.00 0.00 0.00 27 1003.2
20260503233249 22 295 12.9 14.5 0.00 0.00 0.00 26 1003.0
20260503232746 22 289 16.1 20.9 0.00 0.00 0.00 25 1003.2
20260503232243 22 313 9.7 12.9 0.00 0.00 0.00 27 1003.1
20260503231741 22 323 8.0 9.7 0.00 0.00 0.00 27 1003.1
20260503231238 23 296 11.3 12.9 0.00 0.00 0.00 25 1003.1
20260503230734 23 285 22.5 25.7 0.00 0.00 0.00 24 1003.1
20260503230232 23 319 14.5 17.7 0.00 0.00 0.00 27 1003.0
20260503225729 23 301 9.7 14.5 0.00 0.00 0.00 26 1003.1
20260503225229 23 310 17.7 20.9 0.00 0.00 0.00 26 1002.9
20260503224726 23 289 14.5 17.7 0.00 0.00 0.00 26 1003.1
20260503224224 23 305 9.7 11.3 0.00 0.00 0.00 26 1003.1
20260503223721 23 350 9.7 12.9 0.00 0.00 0.00 28 1003.0
20260503223219 23 341 12.9 14.5 0.00 0.00 0.00 27 1002.9
20260503222715 23 312 11.3 12.9 0.00 0.00 0.00 26 1003.1
20260503222213 23 309 11.3 12.9 0.00 0.00 0.00 26 1003.2
20260503221711 23 330 11.3 14.5 0.00 0.00 0.00 25 1003.1
20260503221208 23 319 12.9 14.5 0.00 0.00 0.00 25 1003.0
20260503220705 23 317 14.5 14.5 0.00 0.00 0.00 26 1003.0
20260503220201 23 325 11.3 14.5 0.00 0.00 0.00 26 1003.0
20260503215658 23 329 16.1 16.1 0.00 0.00 0.00 24 1003.0
20260503215155 23 302 11.3 12.9 0.00 0.00 0.00 27 1002.9
20260503214654 23 313 11.3 14.5 0.00 0.00 0.00 29 1003.0
20260503214149 23 347 6.4 8.0 0.00 0.00 0.00 30 1003.1
20260503213643 23 325 19.3 25.7 0.00 0.00 0.00 26 1003.0
20260503213139 23 291 17.7 20.9 0.00 0.00 0.00 26 1003.2
20260503212637 23 334 14.5 20.9 0.00 0.00 0.00 26 1002.9
20260503212134 23 327 14.5 17.7 0.00 0.00 0.00 27 1003.1
20260503211632 23 334 12.9 14.5 0.00 0.00 0.00 30 1002.9
20260503211127 23 316 6.4 9.7 0.00 0.00 0.00 28 1003.0
20260503210623 23 322 9.7 9.7 0.00 0.00 0.00 29 1003.1
20260503210120 23 308 9.7 12.9 0.00 0.00 0.00 31 1003.2
20260503205616 23 347 11.3 14.5 0.00 0.00 0.00 32 1003.2
20260503205112 23 310 9.7 11.3 0.00 0.00 0.00 30 1003.2
20260503204609 23 319 14.5 16.1 0.00 0.00 0.00 27 1003.4
20260503204107 23 313 12.9 14.5 0.00 0.00 0.00 29 1003.3
20260503203604 23 305 12.9 14.5 0.00 0.00 0.00 32 1003.4
20260503203101 23 341 11.3 14.5 0.00 0.00 0.00 29 1003.5
20260503202558 23 330 16.1 17.7 0.00 0.00 0.00 27 1003.5
20260503202056 23 288 16.1 24.1 0.00 0.00 0.00 30 1003.4
20260503201554 23 297 11.3 14.5 0.00 0.00 0.00 30 1003.4
20260503201051 23 319 22.5 25.7 0.00 0.00 0.00 28 1003.5
20260503200547 23 327 14.5 17.7 0.00 0.00 0.00 32 1003.5
20260503200044 23 323 14.5 17.7 0.00 0.00 0.00 31 1003.5
20260503195541 23 311 16.1 17.7 0.00 0.00 0.00 29 1003.3
20260503195038 23 317 9.7 11.3 0.00 0.00 0.00 32 1003.4
20260503194535 23 319 16.1 17.7 0.00 0.00 0.00 30 1003.4
20260503194035 23 308 16.1 20.9 0.00 0.00 0.00 33 1003.4
20260503193532 23 338 12.9 16.1 0.00 0.00 0.00 31 1003.8
20260503193027 23 23 8.0 11.3 0.00 0.00 0.00 36 1003.5
20260503192523 23 303 16.1 17.7 0.00 0.00 0.00 32 1003.5
20260503192019 23 325 11.3 16.1 0.00 0.00 0.00 31 1003.4
20260503191516 23 320 16.1 20.9 0.00 0.00 0.00 31 1003.5
20260503191013 23 317 16.1 16.1 0.00 0.00 0.00 32 1003.5
20260503190510 23 333 11.3 12.9 0.00 0.00 0.00 34 1003.4
20260503190008 23 333 9.7 11.3 0.00 0.00 0.00 34 1003.4
20260503185504 22 297 19.3 22.5 0.00 0.00 0.00 30 1003.6
20260503185003 23 297 20.9 22.5 0.00 0.00 0.00 31 1003.4
20260503184500 22 311 14.5 16.1 0.00 0.00 0.00 32 1003.5
20260503183956 22 293 14.5 16.1 0.00 0.00 0.00 33 1003.6
20260503183453 22 283 17.7 22.5 0.00 0.00 0.00 33 1003.5
20260503182950 22 280 22.5 27.4 0.00 0.00 0.00 33 1003.7
20260503182449 22 303 17.7 20.9 0.00 0.00 0.00 34 1003.8
20260503181946 22 289 17.7 22.5 0.00 0.00 0.00 34 1003.8
20260503181443 22 325 11.3 14.5 0.00 0.00 0.00 36 1003.8
20260503180939 22 289 19.3 25.7 0.00 0.00 0.00 34 1003.7
20260503180437 22 296 17.7 25.7 0.00 0.00 0.00 35 1003.9
20260503175934 22 312 9.7 11.3 0.00 0.00 0.00 38 1004.0
20260503175432 21 305 24.1 27.4 0.00 0.00 0.00 36 1003.8
20260503174927 21 289 20.9 24.1 0.00 0.00 0.00 37 1004.1
20260503174426 21 293 17.7 20.9 0.00 0.00 0.00 38 1004.2
20260503173926 21 301 17.7 20.9 0.00 0.00 0.00 38 1004.3
20260503173422 21 303 22.5 27.4 0.00 0.00 0.00 37 1004.2
20260503172919 21 301 19.3 20.9 0.00 0.00 0.00 40 1004.2
20260503172417 20 297 20.9 24.1 0.00 0.00 0.00 39 1004.4
20260503171912 20 289 16.1 20.9 0.00 0.00 0.00 41 1004.4
20260503171410 20 302 14.5 17.7 0.00 0.00 0.00 42 1004.4
20260503170907 20 295 14.5 16.1 0.00 0.00 0.00 42 1004.5
20260503170403 20 294 12.9 17.7 0.00 0.00 0.00 45 1004.5
20260503150755 16 279 12.9 17.7 0.00 0.00 0.00 45 1005.3
20260503150251 16 236 3.2 8.0 0.00 0.00 0.00 48 1005.2
20260503140216 14 171 1.6 4.8 0.00 0.00 0.00 49 1005.9
20260503131145 12 175 11.3 17.7 0.00 0.00 0.00 53 1006.4
20260503130643 11 193 4.8 8.0 0.00 0.00 0.00 55 1006.4
20260503130140 11 344 1.6 3.2 0.00 0.00 0.00 55 1006.5
20260503120106 11 194 11.3 17.7 0.00 0.00 0.00 52 1006.8
20260503110533 11 186 3.2 8.0 0.00 0.00 0.00 50 1007.0